EW9807 Weather Reports


Display with metric or nautical units.
time (UTC)temp
F
wind
direction
speed
MPH
gust
MPH
rain 1hr
in
rain 24hr
in
rain mn
in
humidity
%
barometer
mb
20260510193601 80 174 3.0 5.0 0.00 0.00 0.00 49 1016.2
20260510193050 81 147 1.0 4.0 0.00 0.00 0.00 50 1016.2
20260510192045 80 173 4.0 7.0 0.00 0.00 0.00 51 1016.4
20260510191554 81 91 1.0 9.0 0.00 0.00 0.00 49 1016.4
20260510191044 81 170 4.0 7.0 0.00 0.00 0.00 51 1016.5
20260510190554 81 229 3.0 7.0 0.00 0.00 0.00 51 1016.5
20260510185552 80 184 1.0 10.0 0.00 0.00 0.00 50 1016.6
20260510185507 80 292 1.0 10.0 0.00 0.00 0.00 50 1015.7
20260510184550 80 147 1.0 4.0 0.00 0.00 0.00 47 1016.6
20260510184057 80 144 2.0 9.0 0.00 0.00 0.00 47 1016.6
20260510183545 81 173 5.0 9.0 0.00 0.00 0.00 52 1016.5
20260510183049 80 192 2.0 6.0 0.00 0.00 0.00 51 1016.6
20260510182558 80 165 2.0 5.0 0.00 0.00 0.00 54 1016.5
20260510182047 80 177 3.0 6.0 0.00 0.00 0.00 49 1016.6
20260510181557 80 211 1.0 6.0 0.00 0.00 0.00 54 1016.6
20260510180601 79 88 2.0 4.0 0.00 0.00 0.00 52 1016.7
20260510180049 79 97 1.0 5.0 0.00 0.00 0.00 53 1016.7
20260510175551 79 185 3.0 5.0 0.00 0.00 0.00 50 1016.8
20260510175100 80 178 1.0 6.0 0.00 0.00 0.00 50 1016.9
20260510174548 80 162 2.0 8.0 0.00 0.00 0.00 54 1016.9
20260510174056 80 202 2.0 9.0 0.00 0.00 0.00 53 1016.9
20260510173548 80 190 5.0 7.0 0.00 0.00 0.00 51 1016.9
20260510173102 80 177 3.0 5.0 0.00 0.00 0.00 55 1016.9
20260510172549 79 161 1.0 5.0 0.00 0.00 0.00 55 1016.9
20260510172100 80 116 3.0 6.0 0.00 0.00 0.00 53 1016.9
20260510171548 79 175 2.0 7.0 0.00 0.00 0.00 52 1017.0
20260510170547 79 181 3.0 7.0 0.00 0.00 0.00 57 1017.1
20260510170502 78 189 1.0 6.0 0.00 0.00 0.00 57 1016.3
20260510170129 78 146 3.0 6.0 0.00 0.00 0.00 54 1017.2
20260510170024 78 153 3.0 6.0 0.00 0.00 0.00 54 1016.3
20260510165551 78 152 1.0 4.0 0.00 0.00 0.00 59 1017.2
20260510165101 78 153 0.0 3.0 0.00 0.00 0.00 57 1017.3
20260510164551 77 233 1.0 3.0 0.00 0.00 0.00 59 1017.3
20260510164103 77 244 1.0 4.0 0.00 0.00 0.00 60 1017.4
20260510163549 76 197 0.0 3.0 0.00 0.00 0.00 61 1017.5
20260510163059 76 129 1.0 3.0 0.00 0.00 0.00 62 1017.5
20260510162543 77 129 1.0 3.0 0.00 0.00 0.00 63 1017.6
20260510162056 77 170 1.0 3.0 0.00 0.00 0.00 64 1017.6
20260510161605 76 195 1.0 4.0 0.00 0.00 0.00 65 1017.6
20260510160549 76 98 2.0 4.0 0.00 0.00 0.00 63 1017.6
20260510160059 76 186 3.0 6.0 0.00 0.00 0.00 67 1017.7
20260510155601 75 163 4.0 6.0 0.00 0.00 0.00 67 1017.8
20260510155050 74 197 1.0 3.0 0.00 0.00 0.00 68 1017.7
20260510154601 74 44 1.0 2.0 0.00 0.00 0.00 70 1017.9
20260510154052 74 135 1.0 2.0 0.00 0.00 0.00 70 1017.9
20260510153603 73 117 1.0 2.0 0.00 0.00 0.00 73 1017.9
20260510153052 73 79 1.0 2.0 0.00 0.00 0.00 73 1017.8
20260510152600 72 52 0.0 2.0 0.00 0.00 0.00 74 1017.8
20260510152051 72 52 1.0 3.0 0.00 0.00 0.00 73 1017.7
20260510151557 72 113 2.0 3.0 0.00 0.00 0.00 76 1017.7
20260510151048 71 65 1.0 4.0 0.00 0.00 0.00 77 1017.9
20260510150056 70 172 1.0 5.0 0.00 0.00 0.00 82 1017.9
20260510145544 70 177 1.0 5.0 0.00 0.00 0.00 82 1017.9
20260510145056 68 179 0.0 2.0 0.00 0.00 0.00 84 1017.9
20260510144548 68 179 1.0 4.0 0.00 0.00 0.00 86 1017.9
20260510144055 67 162 2.0 4.0 0.00 0.00 0.00 88 1018.0
20260510143545 66 255 1.0 5.0 0.00 0.00 0.00 89 1018.1
20260510143051 66 162 0.0 5.0 0.00 0.00 0.00 89 1018.1
20260510142558 65 167 2.0 4.0 0.00 0.00 0.00 91 1018.1
20260510142047 65 178 1.0 4.0 0.00 0.00 0.00 92 1018.1
20260510141559 64 178 2.0 4.0 0.00 0.00 0.00 92 1018.1
20260510141051 64 193 3.0 6.0 0.00 0.00 0.00 93 1018.2
20260510140542 63 176 3.0 6.0 0.00 0.00 0.00 94 1018.2
20260510140055 63 177 1.0 4.0 0.00 0.00 0.00 95 1018.1
20260510135050 63 176 2.0 4.0 0.00 0.00 0.00 96 1017.9
20260510134558 63 166 0.0 3.0 0.00 0.00 0.00 96 1017.9
20260510134049 63 160 1.0 2.0 0.00 0.00 0.00 96 1017.8
20260510133600 62 160 0.0 0.0 0.00 0.00 0.00 96 1017.8
20260510133051 62 160 0.0 0.0 0.00 0.00 0.00 97 1017.7
20260510132601 61 160 0.0 0.0 0.00 0.00 0.00 97 1017.7
20260510132050 61 160 0.0 0.0 0.00 0.00 0.00 97 1017.7
20260510131556 61 160 0.0 0.0 0.00 0.00 0.00 96 1017.7
20260510131101 61 160 0.0 0.0 0.00 0.00 0.00 97 1017.7
20260510130101 61 160 0.0 0.0 0.00 0.00 0.00 97 1017.7
20260510125547 61 160 0.0 1.0 0.00 0.00 0.00 97 1017.7
20260510124556 61 160 0.0 1.0 0.00 0.00 0.00 97 1017.4
20260510124047 61 160 0.0 1.0 0.00 0.00 0.00 97 1017.5
20260510123556 61 54 0.0 1.0 0.00 0.00 0.00 97 1017.4
20260510123101 61 54 0.0 1.0 0.00 0.00 0.00 97 1017.4
20260510122604 60 54 0.0 1.0 0.00 0.00 0.00 97 1017.3
20260510122053 60 54 0.0 1.0 0.00 0.00 0.00 97 1017.2
20260510121559 59 54 0.0 1.0 0.00 0.00 0.00 97 1017.1
20260510121047 59 186 0.0 0.0 0.00 0.00 0.00 97 1017.0
20260510120554 59 186 0.0 2.0 0.00 0.00 0.00 97 1017.0
20260510120100 59 186 1.0 2.0 0.00 0.00 0.00 96 1016.9
20260510115547 58 186 0.0 0.0 0.00 0.00 0.00 97 1016.9
20260510115055 58 186 0.0 0.0 0.00 0.00 0.00 96 1016.7
20260510114546 58 186 0.0 0.0 0.00 0.00 0.00 96 1016.6
20260510114058 58 186 0.0 0.0 0.00 0.00 0.00 96 1016.4
20260510113548 58 186 0.0 0.0 0.00 0.00 0.00 96 1016.4
20260510113057 58 186 0.0 0.0 0.00 0.00 0.00 96 1016.3
20260510112544 58 186 0.0 0.0 0.00 0.00 0.00 96 1016.2
20260510112051 57 186 0.0 0.0 0.00 0.00 0.00 96 1016.2
20260510111601 57 186 0.0 0.0 0.00 0.00 0.00 96 1016.1
20260510110605 57 186 0.0 0.0 0.00 0.00 0.00 96 1016.0
20260510110519 56 186 0.0 0.0 0.00 0.00 0.00 96 1015.3
20260510110123 57 186 0.0 0.0 0.00 0.00 0.00 96 1015.9
20260510105602 57 186 0.0 0.0 0.00 0.00 0.00 96 1015.8
20260510105048 57 186 0.0 0.0 0.00 0.00 0.00 96 1015.6
20260510104603 57 186 0.0 0.0 0.00 0.00 0.00 96 1015.5
20260510104052 57 186 0.0 0.0 0.00 0.00 0.00 96 1015.4
20260510103601 57 186 0.0 0.0 0.00 0.00 0.00 96 1015.4
20260510103049 57 186 0.0 0.0 0.00 0.00 0.00 96 1015.3
20260510102559 58 186 0.0 0.0 0.00 0.00 0.00 96 1015.3
20260510102048 58 186 0.0 0.0 0.00 0.00 0.00 96 1015.2
20260510101558 57 186 0.0 0.0 0.00 0.00 0.00 96 1015.3
20260510101045 57 186 0.0 0.0 0.00 0.00 0.00 96 1015.2
20260510100555 58 186 0.0 0.0 0.00 0.00 0.00 96 1015.3
20260510100105 58 186 0.0 0.0 0.00 0.00 0.00 96 1015.2
20260510095551 58 186 0.0 0.0 0.00 0.00 0.00 95 1015.2
20260510095100 58 186 0.0 0.0 0.00 0.00 0.00 96 1015.1
20260510094551 58 186 0.0 0.0 0.00 0.00 0.00 96 1015.0
20260510094100 58 186 0.0 0.0 0.00 0.00 0.00 96 1014.9
20260510093549 59 186 0.0 0.0 0.00 0.00 0.00 96 1014.8
20260510093056 59 186 0.0 0.0 0.00 0.00 0.00 96 1014.8
20260510092601 58 186 0.0 0.0 0.00 0.00 0.00 96 1014.7
20260510092047 59 186 0.0 0.0 0.00 0.00 0.00 96 1014.8
20260510091559 59 186 0.0 0.0 0.00 0.00 0.00 96 1014.7
20260510090105 59 186 0.0 0.0 0.00 0.00 0.00 96 1014.7
20260510084553 59 186 0.0 0.0 0.00 0.00 0.00 96 1014.7
20260510083556 59 186 0.0 0.0 0.00 0.00 0.00 96 1014.4
20260510082059 60 186 0.0 0.0 0.00 0.00 0.00 96 1014.3
20260510081551 60 186 0.0 0.0 0.00 0.00 0.00 95 1014.3
20260510081057 60 186 0.0 0.0 0.00 0.00 0.00 95 1014.4
20260510080544 60 186 0.0 0.0 0.00 0.00 0.00 96 1014.3
20260510080054 60 186 0.0 0.0 0.00 0.00 0.00 95 1014.3
20260510075600 60 186 0.0 0.0 0.00 0.00 0.00 96 1014.3
20260510075050 60 186 0.0 0.0 0.00 0.00 0.00 95 1014.2
20260510074603 60 186 0.0 0.0 0.00 0.00 0.00 95 1014.3
20260510074053 60 186 0.0 0.0 0.00 0.00 0.00 95 1014.2
20260510073556 60 186 0.0 0.0 0.00 0.00 0.00 96 1014.1
20260510073105 60 186 0.0 0.0 0.00 0.00 0.00 95 1014.1
20260510072552 60 186 0.0 0.0 0.00 0.00 0.00 95 1014.1
20260510072101 60 186 0.0 0.0 0.00 0.00 0.00 95 1014.1
20260510071551 60 186 0.0 0.0 0.00 0.00 0.00 95 1014.1
20260510071103 60 186 0.0 0.0 0.00 0.00 0.00 95 1014.1
20260510070551 60 186 0.0 0.0 0.00 0.00 0.00 95 1014.0
20260510065547 61 186 0.0 0.0 0.00 0.00 0.00 95 1013.9
20260510065054 61 186 0.0 0.0 0.00 0.00 0.00 95 1013.9
20260510064601 61 186 0.0 0.0 0.00 0.00 0.00 95 1014.0
20260510064049 61 186 0.0 0.0 0.00 0.00 0.00 95 1013.9
20260510063557 61 186 0.0 0.0 0.00 0.00 0.00 95 1014.0
20260510063100 61 186 0.0 0.0 0.00 0.00 0.00 95 1014.1
20260510062547 61 186 0.0 0.0 0.00 0.00 0.00 95 1014.0
20260510061548 61 186 0.0 0.0 0.00 0.00 0.00 95 1014.0
20260510061057 61 186 0.0 0.0 0.00 0.00 0.00 95 1014.0
20260510060546 61 186 0.0 0.0 0.00 0.00 0.00 95 1014.1
20260510060058 61 186 0.0 0.0 0.00 0.00 0.00 95 1014.1
20260510055600 61 186 0.0 0.0 0.00 0.00 0.00 95 1014.1
20260510055051 61 186 0.0 0.0 0.00 0.00 0.00 95 1014.2
20260510054601 61 186 0.0 0.0 0.00 0.00 0.00 95 1014.2
20260510054048 61 186 0.0 0.0 0.00 0.00 0.00 95 1014.3
20260510053556 61 186 0.0 0.0 0.00 0.00 0.00 95 1014.2
20260510053105 61 186 0.0 0.0 0.00 0.00 0.00 94 1014.2
20260510052046 61 186 0.0 0.0 0.00 0.00 0.00 94 1014.2
20260510051553 61 186 0.0 0.0 0.00 0.00 0.00 94 1014.3
20260510051044 62 186 0.0 0.0 0.00 0.00 0.00 94 1014.3
20260510050554 62 186 0.0 0.0 0.00 0.00 0.00 94 1014.4
20260510050106 62 186 0.0 0.0 0.00 0.00 0.00 94 1014.5
20260510045551 62 186 0.0 0.0 0.00 0.00 0.00 94 1014.5
20260510045100 62 186 0.0 0.0 0.00 0.00 0.00 94 1014.6
20260510044551 62 186 0.0 0.0 0.00 0.00 0.00 94 1014.6
20260510044100 62 186 0.0 0.0 0.00 0.00 0.00 94 1014.6
20260510043551 62 186 0.0 0.0 0.00 0.00 0.00 94 1014.6
20260510043059 62 186 0.0 0.0 0.00 0.00 0.00 94 1014.6
20260510042544 62 186 0.0 0.0 0.00 0.00 0.00 94 1014.6
20260510041554 62 186 0.0 0.0 0.00 0.00 0.00 94 1014.7
20260510040556 62 186 0.0 0.0 0.00 0.00 0.00 93 1014.8
20260510040133 62 186 0.0 0.0 0.00 0.00 0.00 93 1014.8
20260510035554 62 186 0.0 0.0 0.00 0.00 0.00 93 1014.8
20260510035101 62 186 0.0 0.0 0.00 0.00 0.00 93 1014.8
20260510034551 62 186 0.0 0.0 0.00 0.00 0.00 93 1014.9
20260510034055 63 186 0.0 0.0 0.00 0.00 0.00 93 1014.9
20260510033055 63 186 0.0 0.0 0.00 0.00 0.00 92 1014.9
20260510032601 63 186 0.0 0.0 0.00 0.00 0.00 92 1014.8
20260510032051 63 186 0.0 0.0 0.00 0.00 0.00 92 1014.9
20260510031558 63 186 0.0 0.0 0.00 0.00 0.00 92 1014.8
20260510031050 63 186 0.0 0.0 0.00 0.00 0.00 92 1014.9
20260510030557 63 186 0.0 0.0 0.00 0.00 0.00 92 1014.9
20260510030119 63 186 0.0 0.0 0.00 0.00 0.00 91 1014.8
20260510025054 64 186 0.0 0.0 0.00 0.00 0.00 91 1014.6
20260510024603 64 186 0.0 0.0 0.00 0.00 0.00 91 1014.5
20260510024052 64 186 0.0 0.0 0.00 0.00 0.00 91 1014.3
20260510023601 64 186 0.0 0.0 0.00 0.00 0.00 90 1014.3
20260510022555 64 186 0.0 0.0 0.00 0.00 0.00 90 1014.4
20260510021558 64 186 0.0 0.0 0.00 0.00 0.00 90 1014.3
20260510021047 64 186 0.0 0.0 0.00 0.00 0.00 90 1014.3
20260510020558 64 186 0.0 0.0 0.00 0.00 0.00 90 1014.2
20260510020049 64 186 0.0 0.0 0.00 0.00 0.00 90 1014.1
20260510015553 64 186 0.0 0.0 0.00 0.00 0.00 91 1014.0
20260510015101 64 186 0.0 0.0 0.00 0.00 0.00 91 1014.0
20260510014552 64 186 0.0 0.0 0.00 0.00 0.00 91 1013.9
20260510014102 64 186 0.0 0.0 0.00 0.00 0.00 91 1013.9
20260510013550 64 186 0.0 0.0 0.00 0.00 0.00 91 1013.8
20260510013100 64 186 0.0 0.0 0.00 0.00 0.00 90 1013.8
20260510012055 65 186 0.0 0.0 0.00 0.00 0.00 90 1013.9
20260510011559 65 186 0.0 0.0 0.00 0.00 0.00 90 1013.8
20260510011049 65 186 0.0 0.0 0.00 0.00 0.00 89 1013.8
20260510010601 65 186 0.0 0.0 0.00 0.00 0.00 89 1013.7
20260510010050 65 186 0.0 0.0 0.00 0.00 0.00 89 1013.6
20260510004558 65 186 0.0 0.0 0.00 0.00 0.00 88 1013.3
20260510004048 66 186 0.0 0.0 0.00 0.00 0.00 87 1013.3
20260510003551 66 186 0.0 0.0 0.00 0.00 0.00 87 1013.3
20260510003102 66 186 0.0 0.0 0.00 0.00 0.00 87 1013.2
20260510002550 66 186 0.0 0.0 0.00 0.00 0.00 86 1013.1
20260510001100 66 186 0.0 0.0 0.00 0.00 0.00 86 1013.0
20260510000055 67 186 0.0 0.0 0.00 0.00 0.00 85 1013.2
20260510000007 66 186 0.0 0.0 0.00 0.00 0.00 85 1012.4
20260509235047 67 186 0.0 2.0 0.00 0.00 0.00 84 1013.1
20260509234551 67 186 1.0 3.0 0.00 0.00 0.00 84 1013.1
20260509234100 67 186 2.0 4.0 0.00 0.00 0.00 83 1013.0
20260509233057 68 195 2.0 4.0 0.00 0.00 0.00 83 1012.8
20260509232605 68 173 0.0 2.0 0.00 0.00 0.00 83 1012.7
20260509232053 68 173 0.0 2.0 0.00 0.00 0.00 82 1012.6
20260509231545 68 173 0.0 2.0 0.00 0.00 0.00 82 1012.5
20260509231049 68 173 0.0 3.0 0.00 0.00 0.00 82 1012.5
20260509224547 68 198 1.0 3.0 0.00 0.00 0.00 81 1012.2
20260509224051 69 199 1.0 3.0 0.00 0.00 0.00 81 1012.2
20260509223600 69 186 2.0 3.0 0.00 0.00 0.00 80 1012.1
20260509223109 69 153 0.0 2.0 0.00 0.00 0.00 80 1012.1
20260509222047 69 153 1.0 3.0 0.00 0.00 0.00 80 1012.1
20260509221047 69 146 0.0 3.0 0.00 0.00 0.00 79 1012.1
20260509220553 69 181 1.0 4.0 0.00 0.00 0.00 79 1012.1
20260509215551 69 174 2.0 5.0 0.00 0.00 0.00 78 1012.1
20260509215059 69 139 1.0 4.0 0.00 0.00 0.00 78 1012.2
20260509214549 69 180 0.0 6.0 0.00 0.00 0.00 78 1012.2
20260509214056 70 166 2.0 6.0 0.00 0.00 0.00 77 1012.1
20260509213545 70 171 2.0 4.0 0.00 0.00 0.00 78 1012.2
20260509213051 69 180 2.0 4.0 0.00 0.00 0.00 79 1012.3
20260509212557 69 193 1.0 3.0 0.00 0.00 0.00 78 1012.1
20260509212101 69 193 1.0 3.0 0.00 0.00 0.00 78 1012.0
20260509211550 70 193 1.0 4.0 0.00 0.00 0.00 77 1011.9
20260509211507 69 193 1.0 4.0 0.00 0.00 0.00 77 1011.1
20260509210546 69 179 2.0 6.0 0.00 0.00 0.00 77 1011.9
20260509210127 69 185 2.0 4.0 0.00 0.00 0.00 77 1011.8
20260509205053 70 181 2.0 5.0 0.00 0.00 0.00 77 1011.8
20260509204559 69 164 1.0 4.0 0.00 0.00 0.00 77 1011.8
20260509203553 69 191 3.0 4.0 0.00 0.00 0.00 77 1011.8
20260509203101 69 195 1.0 3.0 0.00 0.00 0.00 77 1011.9
20260509202551 69 167 1.0 3.0 0.00 0.00 0.00 78 1011.9
20260509202058 69 181 0.0 3.0 0.00 0.00 0.00 77 1011.8
20260509201549 69 181 1.0 3.0 0.00 0.00 0.00 78 1011.8
20260509201101 69 181 1.0 4.0 0.00 0.00 0.00 77 1011.9
20260509200549 69 181 1.0 4.0 0.00 0.00 0.00 76 1012.0
20260509195602 69 176 1.0 5.0 0.00 0.00 0.00 76 1012.0
20260509195050 69 176 3.0 5.0 0.00 0.00 0.00 76 1012.1
20260509194557 69 165 2.0 5.0 0.00 0.00 0.00 77 1012.1
20260509194048 69 171 1.0 4.0 0.00 0.00 0.00 77 1012.1